Total_Precipitation_Accumulation
0.22 0.31 0.76 1.00 1.09 1.06 1.10 1.14 1.21 1.13 1.09 1.16 1.15 1.22 1.31 1.34 1.30 1.24 1.28 1.36 1.53 1.59 1.47 1.55 1.57 1.48 1.27 1.05 0.92 0.87 0.76 0.76 0.76 0.78 0.83 0.92 0.91 0.90 0.81 0.71 0.63 0.69 0.91
0.23 0.33 0.69 0.97 1.13 1.13 1.16 1.18 1.23 1.14 1.10 1.19 1.24 1.26 1.27 1.30 1.36 1.36 1.41 1.48 1.61 1.65 1.56 1.58 1.57 1.51 1.37 1.11 0.94 0.85 0.76 0.69 0.62 0.57 0.58 0.67 0.82 0.95 0.83 0.74 0.71 0.86 0.94
0.23 0.33 0.60 0.98 1.15 1.18 1.20 1.22 1.26 1.18 1.15 1.17 1.24 1.33 1.36 1.35 1.30 1.41 1.48 1.51 1.58 1.64 1.61 1.61 1.57 1.46 1.25 1.07 0.94 0.84 0.78 0.65 0.50 0.43 0.41 0.48 0.69 0.98 0.89 0.84 0.85 0.96 0.98
0.23 0.35 0.56 0.94 1.15 1.23 1.27 1.29 1.28 1.24 1.25 1.26 1.27 1.34 1.39 1.35 1.28 1.31 1.38 1.41 1.51 1.58 1.61 1.58 1.51 1.42 1.23 1.08 0.99 0.92 0.80 0.64 0.48 0.40 0.32 0.42 0.66 1.07 1.06 0.99 0.97 0.99 1.00
0.28 0.39 0.64 0.99 1.20 1.30 1.33 1.30 1.28 1.28 1.28 1.31 1.33 1.40 1.41 1.41 1.30 1.23 1.20 1.26 1.36 1.42 1.49 1.57 1.41 1.29 1.15 1.02 0.92 0.86 0.82 0.70 0.51 0.37 0.30 0.39 0.67 1.17 1.16 1.05 0.99 0.95 0.91
0.31 0.41 0.66 1.00 1.24 1.31 1.31 1.29 1.29 1.32 1.35 1.36 1.36 1.45 1.49 1.46 1.37 1.29 1.21 1.19 1.16 1.23 1.33 1.38 1.32 1.28 1.14 0.99 0.95 0.94 0.90 0.81 0.50 0.28 0.29 0.37 0.67 1.17 1.21 1.05 0.98 0.91 0.89
0.41 0.50 0.70 1.02 1.28 1.37 1.39 1.39 1.38 1.37 1.41 1.44 1.41 1.47 1.55 1.49 1.47 1.39 1.29 1.23 1.15 1.13 1.17 1.20 1.18 1.22 1.15 1.02 1.02 1.02 1.03 0.85 0.48 0.34 0.33 0.39 0.64 1.25 1.48 1.26 1.08 1.00 0.96
0.51 0.65 0.83 1.19 1.39 1.53 1.58 1.55 1.53 1.54 1.59 1.59 1.57 1.59 1.64 1.55 1.46 1.40 1.29 1.25 1.22 1.22 1.21 1.15 1.12 1.15 1.15 1.08 1.02 1.02 0.98 0.68 0.43 0.44 0.45 0.46 0.73 1.37 1.69 1.62 1.36 1.14 1.01
0.62 0.77 0.91 1.14 1.39 1.68 1.84 1.84 1.76 1.71 1.74 1.74 1.71 1.71 1.71 1.67 1.62 1.55 1.45 1.34 1.29 1.30 1.29 1.18 1.06 1.03 1.03 1.05 0.98 0.89 0.78 0.57 0.37 0.44 0.46 0.55 0.74 1.34 1.66 1.75 1.60 1.41 1.23
0.75 0.89 1.03 1.20 1.39 1.63 1.85 1.99 1.90 1.77 1.73 1.81 1.82 1.76 1.78 1.74 1.74 1.70 1.55 1.41 1.32 1.31 1.26 1.18 1.12 1.05 0.94 0.89 0.81 0.74 0.63 0.53 0.38 0.42 0.54 0.55 0.69 1.31 1.64 1.73 1.61 1.50 1.40
0.92 1.02 1.12 1.31 1.46 1.71 1.92 1.96 2.00 1.91 1.86 1.85 1.79 1.74 1.77 1.73 1.67 1.61 1.46 1.43 1.42 1.36 1.30 1.26 1.18 1.07 0.96 0.81 0.72 0.63 0.56 0.47 0.46 0.54 0.55 0.57 0.85 1.39 1.64 1.67 1.59 1.49 1.47
0.99 1.11 1.19 1.36 1.49 1.71 1.77 1.95 2.13 2.01 1.92 1.83 1.66 1.65 1.63 1.64 1.63 1.51 1.49 1.47 1.47 1.45 1.43 1.41 1.32 1.20 1.04 0.85 0.79 0.72 0.50 0.40 0.42 0.43 0.44 0.53 0.90 1.45 1.68 1.67 1.68 1.64 1.64
0.93 1.14 1.25 1.42 1.57 1.72 1.81 1.83 1.99 2.02 1.96 1.86 1.73 1.68 1.69 1.70 1.72 1.64 1.56 1.58 1.50 1.43 1.43 1.45 1.41 1.18 1.06 0.96 0.89 0.73 0.57 0.48 0.40 0.36 0.37 0.47 0.69 1.09 1.52 1.71 1.74 1.76 1.76
0.98 1.17 1.32 1.55 1.72 1.79 1.87 1.90 1.93 2.03 2.04 1.93 1.87 1.80 1.77 1.73 1.70 1.63 1.51 1.47 1.46 1.45 1.45 1.44 1.39 1.23 1.09 0.94 0.86 0.74 0.63 0.55 0.45 0.38 0.34 0.41 0.53 0.78 1.17 1.51 1.69 1.83 1.93
1.02 1.21 1.41 1.67 1.84 1.93 2.00 2.06 2.04 2.01 1.97 1.94 1.86 1.82 1.73 1.69 1.66 1.61 1.52 1.49 1.49 1.41 1.34 1.31 1.26 1.20 1.07 0.97 0.87 0.75 0.72 0.65 0.56 0.49 0.41 0.42 0.43 0.60 0.94 1.28 1.56 1.84 2.07
1.06 1.23 1.47 1.70 1.87 1.98 2.02 2.04 2.01 2.02 1.97 1.95 1.88 1.76 1.70 1.67 1.64 1.62 1.59 1.55 1.55 1.50 1.40 1.35 1.30 1.26 1.16 1.05 0.93 0.82 0.77 0.73 0.66 0.58 0.50 0.48 0.47 0.54 0.78 1.07 1.38 1.79 2.08
1.14 1.34 1.59 1.80 1.97 2.04 2.07 2.09 2.07 2.00 1.97 1.92 1.88 1.90 1.84 1.72 1.62 1.58 1.59 1.54 1.50 1.49 1.45 1.41 1.42 1.42 1.36 1.24 1.10 0.99 0.89 0.82 0.74 0.66 0.60 0.55 0.54 0.57 0.66 0.86 1.08 1.40 1.83
1.25 1.41 1.62 1.89 2.04 2.07 2.12 2.16 2.17 2.09 2.01 2.00 1.94 1.94 1.90 1.83 1.74 1.73 1.67 1.59 1.53 1.58 1.53 1.40 1.36 1.35 1.32 1.26 1.18 1.08 0.98 0.90 0.83 0.76 0.72 0.65 0.64 0.63 0.64 0.71 0.83 1.05 1.47
1.25 1.32 1.56 1.85 2.01 2.06 2.14 2.18 2.26 2.27 2.19 2.13 2.07 1.99 1.92 1.87 1.80 1.80 1.78 1.69 1.63 1.68 1.67 1.55 1.39 1.27 1.20 1.15 1.09 1.06 0.99 0.94 0.97 0.96 0.89 0.80 0.73 0.74 0.76 0.75 0.77 0.85 1.08
1.36 1.45 1.57 1.83 1.98 2.13 2.26 2.35 2.38 2.38 2.31 2.26 2.20 2.02 1.93 1.93 1.91 1.84 1.79 1.72 1.66 1.65 1.66 1.65 1.55 1.40 1.25 1.16 1.11 1.05 0.96 0.88 0.86 0.85 0.84 0.82 0.75 0.71 0.78 0.80 0.78 0.74 0.84
1.42 1.49 1.56 1.76 1.86 2.10 2.29 2.24 2.21 2.18 2.17 2.14 2.14 2.14 2.08 2.10 2.09 2.00 1.92 1.88 1.81 1.70 1.57 1.55 1.57 1.57 1.49 1.38 1.38 1.27 1.08 0.94 0.85 0.77 0.75 0.75 0.71 0.66 0.66 0.74 0.81 0.77 0.71
1.30 1.37 1.44 1.64 1.82 2.00 2.16 2.14 2.06 2.06 2.05 2.05 2.02 2.11 2.21 2.23 2.22 2.12 1.98 1.92 1.88 1.81 1.71 1.58 1.56 1.60 1.54 1.50 1.54 1.58 1.42 1.20 0.97 0.76 0.71 0.69 0.69 0.72 0.71 0.69 0.75 0.81 0.78
1.16 1.23 1.35 1.58 1.78 2.01 2.19 2.35 2.32 2.32 2.31 2.25 2.11 2.02 2.07 2.11 2.07 2.01 1.90 1.82 1.82 1.81 1.76 1.66 1.56 1.52 1.49 1.41 1.39 1.66 1.68 1.34 0.96 0.79 0.72 0.71 0.69 0.72 0.74 0.73 0.72 0.77 0.83
1.04 1.12 1.25 1.57 1.81 2.00 2.16 2.28 2.36 2.31 2.24 2.13 2.02 1.96 1.92 1.89 1.89 1.87 1.87 1.80 1.70 1.65 1.59 1.55 1.52 1.48 1.46 1.47 1.40 1.36 1.39 1.30 1.23 0.98 0.74 0.71 0.73 0.76 0.78 0.79 0.80 0.82 0.88
1.03 1.07 1.17 1.40 1.67 1.90 2.11 2.19 2.27 2.25 2.15 2.11 2.14 2.13 2.11 2.02 1.92 1.88 1.86 1.86 1.77 1.66 1.57 1.53 1.52 1.51 1.48 1.43 1.38 1.28 1.22 1.13 1.12 1.21 0.95 0.75 0.76 0.75 0.76 0.81 0.83 0.87 0.92
1.11 1.14 1.19 1.30 1.49 1.75 1.95 2.03 2.07 2.11 2.08 2.06 2.11 2.12 2.12 2.03 1.90 1.80 1.79 1.79 1.75 1.65 1.53 1.48 1.47 1.49 1.48 1.41 1.33 1.27 1.28 1.25 1.13 1.18 1.10 0.85 0.81 0.77 0.76 0.81 0.86 0.88 0.90